RH
65 79 83 77 75 76 76 76 78 79 78 76 73 72 72 72 71 71 68 71 71 70 68 62 65 66 67 69 70 78 80 80 80 81 82 81 74 70 75 76 76 71 71
60 70 88 81 77 78 79 80 82 81 80 76 75 72 70 70 69 67 67 70 71 73 75 67 64 65 66 70 72 78 78 78 80 81 84 85 84 77 76 77 79 73 71
51 58 67 84 82 82 81 82 82 80 79 75 74 74 72 70 69 69 68 67 69 72 74 76 75 70 69 74 77 77 76 76 75 78 79 83 84 78 75 75 74 69 68
48 54 64 77 81 83 84 83 83 82 80 81 79 79 76 74 74 73 72 70 71 73 74 75 76 80 79 80 80 74 73 73 76 78 72 52 54 75 72 71 69 68 65
41 51 57 71 74 75 76 81 84 83 82 81 80 79 77 76 75 76 76 77 81 81 80 80 76 80 85 82 80 75 73 74 82 77 65 57 59 61 61 62 62 64 66
35 45 58 61 64 68 69 70 72 75 81 84 82 81 79 76 74 74 78 84 86 86 82 81 80 82 86 84 80 79 78 80 84 84 72 63 57 64 59 61 63 65 69
37 38 51 54 56 59 61 63 64 64 67 73 80 82 83 83 80 76 81 83 84 84 80 80 80 80 85 85 78 79 84 86 82 83 73 58 61 64 64 64 69 65 64
47 45 44 56 54 58 60 60 62 62 60 58 62 67 70 79 82 81 81 83 82 80 80 80 80 81 84 84 81 85 87 89 80 86 77 67 60 67 65 65 70 70 68
53 53 53 50 51 61 64 58 58 57 57 56 54 53 55 57 74 81 81 82 81 82 83 85 85 84 85 85 86 88 89 90 95 82 67 64 73 64 65 67 71 74 72
54 60 60 59 55 53 50 64 62 58 56 57 59 61 62 66 69 83 85 85 83 84 84 86 86 85 86 88 89 89 91 92 96 89 79 71 70 62 63 67 70 74 76
55 58 61 64 59 58 49 49 58 59 58 60 62 62 61 47 44 49 75 80 79 82 84 84 84 87 88 89 90 90 91 91 92 85 77 78 75 62 63 68 70 72 72
63 60 60 65 65 59 42 58 57 44 53 50 49 52 54 51 49 48 60 69 78 82 85 83 84 85 90 87 76 87 86 84 88 77 82 80 78 63 63 69 74 74 76
64 65 62 62 65 63 64 67 62 57 61 59 55 56 60 55 63 58 55 50 66 72 81 66 75 84 85 76 84 90 90 92 94 91 84 85 79 68 65 68 71 78 78
65 65 65 63 65 65 69 70 66 60 60 64 64 66 70 75 71 66 62 58 55 52 48 49 53 49 56 62 68 74 79 90 97 96 93 88 86 78 71 71 72 74 77
61 64 66 64 67 64 68 74 71 66 65 66 74 75 76 77 80 75 72 69 66 64 61 63 62 58 57 57 61 62 73 81 87 94 97 91 93 88 80 76 77 74 73
53 59 61 60 64 64 68 71 74 73 70 73 79 81 77 79 81 84 83 77 72 68 64 64 64 64 67 67 66 66 73 82 83 89 96 94 90 96 89 81 80 79 77
55 58 56 54 60 64 66 70 74 75 75 79 78 82 78 74 77 82 84 81 74 70 66 69 66 68 69 67 71 72 76 83 90 90 92 97 95 93 97 92 90 88 85
56 52 55 49 59 62 65 71 70 78 78 78 70 76 70 67 71 77 83 81 81 78 76 76 73 81 75 84 86 86 82 84 87 91 91 91 96 93 92 90 92 89 91
52 54 56 56 58 60 62 68 70 78 76 73 71 73 67 67 69 81 73 71 79 81 74 72 75 85 91 82 77 72 74 85 86 88 95 88 86 85 90 89 91 92 92
57 58 58 55 56 58 65 68 76 83 82 69 64 69 63 66 66 70 77 68 73 72 77 72 78 78 87 85 70 74 78 80 95 92 93 88 88 87 87 86 92 95 92
61 61 59 60 58 62 72 77 82 87 69 69 63 60 59 62 63 65 72 68 69 68 65 58 65 73 85 87 88 83 83 73 78 92 94 96 94 91 86 85 82 92 88
66 66 63 58 58 61 71 76 81 78 73 69 70 58 56 56 62 50 62 65 66 73 69 67 67 74 80 77 92 95 93 86 74 86 90 85 89 84 81 75 90 81 85
70 71 64 60 57 59 64 73 73 81 92 80 69 66 56 54 59 60 57 61 63 68 76 67 70 71 79 73 70 90 94 92 94 87 88 76 57 66 63 46 86 73 72
72 73 66 63 60 53 59 69 71 76 78 69 67 62 60 51 52 57 55 54 59 66 67 59 57 66 70 76 72 53 66 86 95 94 76 65 45 43 40 44 84 70 56
70 78 76 66 61 55 58 60 72 67 67 64 62 58 56 53 48 50 52 52 54 62 61 60 62 60 66 73 69 71 66 66 70 78 81 64 54 48 42 45 78 66 50
74 77 79 70 63 57 56 56 60 65 63 66 61 62 57 55 54 50 48 51 51 54 57 60 60 58 63 62 64 64 69 71 76 75 75 68 69 57 46 45 82 62 61
Wind_Speed
6 10 14 9 7 7 6 6 6 5 4 4 4 4 4 4 4 3 3 3 3 3 3 2 2 3 4 2 4 6 6 6 6 6 5 4 2 4 5 5 3 7 7
8 14 19 13 11 9 9 8 6 5 4 3 2 3 3 2 2 2 1 2 3 4 6 2 2 3 3 1 3 3 3 3 3 2 2 4 6 2 6 6 7 6 6
13 13 12 17 15 12 11 9 7 6 4 3 2 1 2 1 1 1 1 2 3 5 7 8 6 5 3 2 3 2 2 1 2 4 6 3 4 9 5 4 4 4 3
13 11 10 16 16 16 14 12 10 8 7 7 7 7 6 2 2 2 3 3 3 5 6 7 7 9 6 5 5 4 3 2 2 6 5 5 4 10 7 2 1 1 1
13 10 11 15 16 16 15 15 14 12 10 8 7 6 6 5 4 5 4 5 5 4 5 7 7 8 8 5 6 5 5 4 4 6 7 5 2 6 6 5 4 4 2
9 10 11 14 14 14 14 14 13 13 13 10 8 7 6 5 5 4 3 3 4 4 6 6 7 7 7 6 6 7 7 6 5 6 7 4 3 7 5 4 4 2 4
8 7 7 12 11 12 12 12 12 11 11 11 10 9 9 8 6 5 4 4 4 5 6 7 7 8 6 5 8 9 8 7 5 6 7 6 6 11 8 6 6 6 6
7 7 6 8 7 8 10 11 11 11 11 10 10 10 10 10 8 7 7 7 6 6 6 6 7 7 7 6 9 10 9 8 7 6 8 6 6 11 10 8 9 9 8
7 7 7 7 8 6 7 10 8 8 9 9 8 8 9 10 9 8 7 7 7 6 7 7 8 8 8 8 8 10 10 10 6 5 8 5 10 13 12 11 11 12 11
7 7 7 7 7 7 6 8 7 4 6 7 7 6 10 11 10 9 4 4 4 7 8 9 9 11 10 10 11 12 11 11 6 7 7 7 10 13 12 12 13 13 14
6 7 6 7 7 7 6 7 9 4 8 6 6 7 8 5 6 7 3 3 6 8 9 10 12 11 11 11 11 13 13 4 6 7 6 11 12 14 14 13 14 15 15
6 6 6 6 6 6 6 6 6 5 5 5 5 6 5 7 6 6 7 11 9 10 9 12 12 12 9 5 5 9 5 7 5 5 5 10 12 16 15 13 14 16 16
5 5 6 5 5 6 5 4 3 3 3 4 6 5 5 5 5 4 4 4 3 5 4 5 4 4 5 3 4 4 4 5 3 3 6 10 13 16 16 15 16 17 17
6 5 5 6 6 6 4 4 5 4 3 4 5 9 7 4 4 4 4 5 5 4 6 5 4 6 6 6 6 5 5 3 3 3 5 11 11 16 19 19 18 18 18
6 5 3 4 5 5 5 4 4 4 4 5 6 8 7 6 5 5 5 5 5 5 5 5 5 5 5 6 6 8 7 6 4 2 3 10 12 15 19 22 21 21 21
5 5 4 4 4 5 4 4 3 3 4 4 4 4 6 5 4 5 5 5 5 5 5 5 5 5 5 5 6 7 8 6 5 4 4 5 12 12 17 20 21 22 23
5 2 3 2 3 4 4 4 3 3 5 4 1 3 4 5 5 3 4 4 6 7 6 6 6 6 5 5 5 5 6 6 5 5 4 4 6 9 10 14 17 20 22
1 3 3 3 3 3 4 3 3 5 4 4 3 1 5 5 6 4 5 6 8 7 4 5 5 5 7 5 4 5 5 5 6 6 4 7 6 6 10 15 20 18 17
3 3 2 2 3 4 4 4 3 5 4 4 4 5 7 7 7 4 4 5 5 6 6 7 6 4 5 7 7 8 6 5 4 6 8 9 10 8 6 12 18 20 16
1 2 1 2 3 4 3 3 3 4 4 3 3 5 7 5 7 5 4 6 5 5 5 5 5 5 4 6 8 7 5 4 6 5 6 6 5 6 6 7 7 6 18
3 2 0 2 3 3 2 3 2 3 3 3 3 6 6 5 6 6 5 5 5 5 5 6 5 6 4 5 4 7 4 6 8 5 4 4 4 4 5 6 5 5 6
5 4 1 1 2 2 2 2 2 2 0 0 3 5 5 6 6 6 6 5 6 4 5 6 7 4 4 5 3 3 4 4 7 3 4 3 3 3 5 4 7 8 5
6 5 3 1 1 1 2 2 2 3 2 1 3 3 4 6 6 6 6 5 5 4 4 5 6 7 4 4 8 3 4 3 4 2 2 3 5 3 4 6 5 5 5
6 6 3 1 2 2 0 2 2 1 2 2 2 1 2 4 4 5 5 5 4 4 6 5 5 4 4 4 4 6 3 2 1 4 3 3 5 6 5 4 4 5 5
7 6 5 4 4 3 2 1 1 1 3 2 1 2 2 2 3 3 4 4 5 4 5 5 5 5 3 2 2 3 3 4 3 1 4 5 4 5 4 3 3 4 5
6 5 5 5 5 5 4 4 2 1 2 2 2 0 1 2 2 3 3 3 4 4 3 3 4 4 4 4 3 4 2 2 2 2 2 6 5 4 5 4 4 4 4
Wind_Direction
41 50 38 70 64 58 54 63 89 83 87 87 84 81 78 71 66 64 63 46 23 351 347 347 331 352 7 88 86 86 77 69 60 49 43 47 146 89 97 48 54 91 76
83 65 39 43 51 54 59 66 62 71 63 77 84 87 83 83 75 63 49 11 344 324 321 290 309 307 332 117 94 96 81 74 60 21 19 47 129 106 109 70 54 85 80
69 51 48 47 49 48 50 52 53 52 44 26 13 75 132 100 42 14 322 315 323 328 335 343 343 305 271 230 168 164 138 97 350 312 289 247 135 114 108 91 81 96 92
75 61 45 52 51 48 45 42 39 42 40 35 31 21 20 360 320 297 288 294 307 319 326 332 334 334 286 247 206 212 216 229 270 292 293 278 195 148 147 158 172 162 156
86 68 52 53 52 50 46 41 37 36 36 33 30 25 13 347 321 304 313 315 319 308 318 317 316 319 312 247 214 227 237 243 255 286 281 282 7 157 164 179 209 210 194
79 82 60 56 53 51 45 40 37 32 26 22 28 22 6 349 343 321 314 318 314 302 300 304 309 310 311 232 230 230 238 238 241 270 271 248 176 148 185 191 222 207 196
59 73 85 65 58 54 47 39 32 27 24 16 16 12 1 350 334 324 313 292 287 294 300 299 300 305 323 249 238 242 242 233 236 259 276 265 205 186 193 207 218 222 228
58 51 38 81 74 67 56 41 22 15 12 7 7 6 356 342 329 318 313 309 309 296 293 297 295 293 292 271 256 253 259 248 244 239 258 265 261 187 197 216 223 228 228
62 46 36 28 25 85 65 48 19 4 356 351 354 348 337 320 308 302 300 313 313 310 308 301 290 284 279 270 258 247 245 246 237 259 275 260 199 200 209 215 234 226 232
70 55 40 18 23 9 341 40 341 309 324 312 315 320 314 299 273 264 261 58 338 311 301 288 279 277 272 265 256 251 244 239 235 246 260 270 242 215 222 220 229 241 230
77 56 41 26 11 358 340 12 341 328 331 320 298 360 332 320 349 355 16 287 275 269 272 280 281 273 271 269 259 253 241 225 222 231 235 249 235 209 217 228 236 241 246
52 48 32 28 7 2 359 351 329 348 16 345 9 359 343 332 334 334 304 285 267 269 268 260 264 265 270 254 256 253 241 223 228 244 237 253 265 229 226 227 236 245 246
78 50 26 22 5 10 349 335 344 336 11 340 8 359 353 340 346 344 325 330 313 256 263 296 278 241 246 277 293 303 255 251 259 261 266 249 262 253 246 234 231 240 246
87 61 34 14 10 4 337 5 334 339 343 1 10 16 359 337 341 332 327 328 338 325 331 330 330 324 333 310 289 275 298 274 279 290 283 270 261 259 252 243 237 236 242
96 87 48 29 20 351 344 3 341 340 6 21 38 10 348 344 350 353 349 350 345 345 339 340 337 329 331 331 341 337 320 301 293 297 304 293 272 262 258 259 250 245 242
97 69 58 35 26 351 335 355 325 9 343 28 73 27 331 328 352 5 342 330 340 337 334 334 331 334 339 346 333 319 311 318 319 319 309 301 304 276 275 267 263 260 255
106 136 73 46 47 3 335 340 326 50 46 338 61 83 320 334 353 347 328 320 4 336 350 2 352 344 335 324 319 329 310 313 315 308 300 311 313 337 357 350 315 292 276
173 80 77 28 356 10 329 318 324 69 45 305 3 40 360 21 359 24 11 3 356 339 12 360 345 338 349 352 335 293 282 290 285 284 296 20 17 42 37 42 36 40 36
104 70 36 3 8 353 332 309 315 78 45 344 31 27 0 21 2 53 19 357 15 345 7 0 346 351 4 354 331 320 313 287 306 36 47 51 40 34 24 30 52 41 36
129 57 351 359 20 344 301 278 83 82 37 350 22 31 11 17 356 10 14 20 11 4 9 356 355 350 11 352 325 311 307 360 69 70 60 56 53 35 24 32 24 31 59
198 199 338 354 14 342 353 346 47 52 13 357 30 44 8 30 1 28 4 21 14 25 9 9 340 1 353 345 340 339 316 93 49 80 84 69 61 46 43 30 12 37 57
212 176 237 329 353 2 3 356 57 77 265 253 86 64 23 45 23 28 18 17 11 7 14 18 17 357 333 9 4 289 349 328 33 59 80 85 82 72 65 49 59 43 42
191 193 200 141 327 30 20 303 180 164 260 143 60 53 43 43 37 22 19 19 12 22 26 15 21 9 355 343 5 31 348 338 336 6 57 30 40 41 49 42 74 80 57
191 161 138 191 212 192 6 305 347 356 77 96 103 91 84 63 42 28 15 18 22 34 34 20 13 11 13 3 345 360 344 296 303 319 328 1 21 22 32 35 90 86 64
161 151 191 191 187 187 192 253 339 110 123 140 131 133 156 128 99 45 18 18 35 38 34 33 16 23 8 4 7 337 330 320 38 302 298 334 352 0 344 38 102 79 59
142 163 186 202 207 184 202 198 222 132 141 166 165 187 206 187 162 80 19 29 46 46 27 10 18 28 19 17 4 5 7 334 348 4 318 326 298 310 320 335 134 102 75